Regional Weather Roundup
Issued by NWS

Home | Current Version | Previous Version | Graphics & Text | Print | Product List | Glossary On
Versions: 1 2 3 4 5 6 7 8 9 10 11 12 13 14 15 16 17 18 19 20 21 22 23 24 25 26 27 28 29 30 31 32 33 34 35 36 37 38 39 40 41 42 43 44 45 46 47 48 49 50
000
ASUS43 KMKX 270410
RWRWI

WISCONSIN REGIONAL WEATHER ROUNDUP
NATIONAL WEATHER SERVICE MILWAUKEE/SULLIVAN WI
1000 PM CST THU FEB 26 2015

NOTE: "FAIR" INDICATES FEW OR NO CLOUDS BELOW 12,000 FEET WITH NO
SIGNIFICANT WEATHER AND/OR OBSTRUCTIONS TO VISIBILITY.

WIZ001-002-006>008-014>016-023>028-270500-
NORTHWEST WISCONSIN

CITY           SKY/WX    TMP DP  RH WIND       PRES   REMARKS
SUPERIOR ARPT  CLEAR      3 -12  49 NW7       30.46R WCI  -9
ASHLAND        CLEAR     -1 -12  59 SW7       30.41R WCI -14
HAYWARD        FAIR      -9 -18  64 CALM      30.39R
SIREN          CLEAR     -2 -11  65 NW3       30.45R
CUMBERLAND     CLEAR     -4 -13  65 NW7       30.40R WCI -18
RICE LAKE      CLEAR     -2 -12  62 CALM      30.43R
CHETEK         CLEAR      0 -10  62 W3        30.42R
LADYSMITH      CLEAR     -3 -11  67 CALM      30.40R
EAU CLAIRE     CLEAR      0 -11  59 NW6       30.44R WCI -12
MENOMONIE      CLEAR      1 -10  59 W6        30.45S WCI -10
NEW RICHMOND   CLEAR     -2 -10  67 W5        30.45S WCI -12
OSCEOLA        CLEAR      0  -9  65 W3        30.49S
$$

WIZ003>005-009-010-017-018-270500-
NORTH CENTRAL WISCONSIN

CITY           SKY/WX    TMP DP  RH WIND       PRES   REMARKS
MANITOWISH WTR CLEAR    -13 -19  76 W5        30.30R WCI -26
ARBOR VITAE    CLEAR     -6 -13  70 CALM      30.30R
WOODRUFF       CLEAR     -6 -13  70 CALM      30.30R
RHINELANDER    CLEAR     -9 -16  71 W5        30.31R WCI -20
EAGLE RIVER    CLEAR    -13 -19  74 CALM      30.29R
LAND O LAKES   CLEAR    -19 -24  75 CALM      30.29R
PHILLIPS       CLEAR    -10 -16  75 CALM      30.33S
TOMAHAWK       FAIR     -14 -19  78 CALM      30.34R
MEDFORD        CLEAR     -5 -13  68 W3        30.34R
MERRILL        CLEAR     -7 -15  68 CALM      30.35R
$$

WIZ029-030-035-036-043>047-270500-
CENTRAL WISCONSIN

CITY           SKY/WX    TMP DP  RH WIND       PRES   REMARKS
WAUSAU         FAIR       1 -10  60 NW5       30.35R WCI  -9
MOSINEE        CLEAR      1  -9  60 NW7       30.37R WCI -11
MARSHFIELD     CLEAR      0 -11  59 W6        30.37R WCI -12
STEVENS POINT  CLEAR      0 -10  62 W6        30.39R WCI -11
WAUPACA        CLEAR      6  -7  55 W7        30.41R WCI  -6
WAUTOMA        CLEAR      0 -10  62 NW8       30.42R WCI -14
WISC RAPIDS    CLEAR      1 -11  57 NW7       30.42R WCI -12
CAMP DOUGLAS   CLEAR     -4 -10  77 W8        30.43R WCI -19
$$

WIZ011>013-019>022-031-037>040-048>050-270500-
NORTHEAST WISCONSIN

CITY           SKY/WX    TMP DP  RH WIND       PRES   REMARKS
ANTIGO         CLEAR     -4 -12  67 NW6       30.32R WCI -17
SHAWANO        CLEAR      6  -8  50 NW3       30.39R
OCONTO         CLEAR     -8 -11  84 CALM      30.40R
STURGEON BAY   CLEAR      1  -9  60 W5        30.39R WCI  -8
GREEN BAY      CLEAR      3  -5  69 W5        30.39R WCI  -6
MANITOWOC      CLEAR     -1  -8  72 CALM      30.39S
APPLETON       CLEAR      1  -9  60 W10       30.38R WCI -14
CLINTONVILLE   CLEAR      3  -9  55 W7        30.39R WCI  -9
OSHKOSH        CLEAR      5  -7  57 W8        30.39R WCI  -8
$$

WIZ032>034-041-042-053>061-270500-
SOUTHWEST WISCONSIN

CITY           SKY/WX    TMP DP  RH WIND       PRES   REMARKS
LA CROSSE      CLEAR      2  -8  63 CALM      30.49R
SPARTA         CLEAR     -9 -14  76 E3        30.47R
VIROQUA        CLEAR     -1  -8  70 NW3       30.41R
BOSCOBEL       CLEAR     -3  -9  75 W3        30.49R
PRAIRIE DU CHI CLEAR      0 -10  63 W3        30.51R
PLATTEVILLE    CLEAR     -3  -9  74 W6        30.44R WCI -15
$$

WIZ056-057-062-063-064-067-068-270500-
SOUTH CENTRAL WISCONSIN

CITY           SKY/WX    TMP DP  RH WIND       PRES   REMARKS
REEDSBURG      CLEAR      3  -8  60 NW3       30.43R
BARABOO/DELLS  CLEAR      2  -8  61 CALM      30.42R
LONE ROCK      CLEAR      2  -8  63 W8        30.46R WCI -12
MINERAL POINT  CLEAR      3  -8  60 NW5       30.41R WCI  -6
MADISON        CLEAR      2  -7  66 NW5       30.42R WCI  -8
MIDDLETON      CLEAR      3  -8  60 NW5       30.42R WCI  -7
WATERTOWN      CLEAR     -4  -9  79 CALM      30.41R
MONROE         CLEAR      3  -6  66 NW8       30.40R WCI -10
JANESVILLE     FAIR       0  -4  85 CALM      30.42R
$$

WIZ051-052-058>065-066-070>072-270500-
SOUTHEAST WISCONSIN

CITY           SKY/WX    TMP DP  RH WIND       PRES   REMARKS
MILWAUKEE      CLEAR      8  -5  55 W5        30.41R WCI   0
WAUKESHA       CLEAR      0  -8  71 W5        30.41R WCI -10
MILWAUKEE/TIMM CLEAR      3  -6  66 W5        30.42R WCI  -6
RACINE         CLEAR      5  -7  57 W6        30.43R WCI  -6
BURLINGTON     CLEAR     -7 -12  78 CALM      30.42R
KENOSHA        CLEAR     -1 -10  65 NW5       30.41R WCI -11
FOND DU LAC    CLEAR      5  -7  57 W10       30.40R WCI -10
SHEBOYGAN      CLEAR      0  -7  72 W6        30.39R WCI -12
WEST BEND      CLEAR      1  -6  71 CALM      30.39S
JUNEAU         FAIR       3  -7  61 NW3       30.41R
$$

LSZ147-162-270500-
LAKE SUPERIOR

STATION/POSITION TIME  TEMP    WIND        PRES    WAVE
                       AIR SEA DIR/SP/G            HT/PER
                 (UTC) (F)     (DEG/KT/KT) (MB)    (FT/S)
DEVILS ISLAND    0400    7     300/ 15/ 18 1031.2R
PORT WING        0300    9     300/ 15/ 18 1030.1R
SAXON HARBOR     0200    2      CALM  /  7 1029.1
$$

LMZ867-665-643>646-270500-
LAKE MICHIGAN

STATION/POSITION TIME  TEMP    WIND        PRES    WAVE
                       AIR SEA DIR/SP/G            HT/PER
                 (UTC) (F)     (DEG/KT/KT) (MB)    (FT/S)
NORTHPORT PIER   0324    3     240/  3/  6 1028.4R
SISTER BAY       0313    1        CALM       N/A
KEWAUNEE LAKESHO 0300    2     300/  2/  4 1027.7R
SHEBOYGAN LAKESH 0400    7     250/  8/  9 1031.4R
PORT WASHINGTON  0300    7     290/  4/  5 1030.1R
MILWAUKEE LAKESH 0300   10     300/  4/  6   N/A
KENOSHA   LAKESH 0400    7     310/  7/  9 1029.8R
$$

TC  - TEMPERATURE IN CELSIUS
VSB - VISIBILITY IN STATUTE MILES
WCI - WIND CHILL INDEX
HX  - HEAT INDEX




USA.gov is the U.S. government's official web portal to all federal, state and local government web resources and services.